Location: Clegg Observatory
(38.9178°N, 78.6069°W)
Time: 14:38:17
(UTC-04:00)

Daily predictions for brighter satellites

Satellite Brightness Start Highest point End
(mag) Time Altitude Azimuth Time Altitude Azimuth Time Altitude Azimuth
USA 186 2.6 21:14:15 10° SSW 21:16:18 32° W 21:18:27 10° NNW
OAO 2 Rocket 4.5 21:13:35 10° SSW 21:17:54 25° SSE 21:22:13 10° E
Cosmos 2058 4.5 21:16:41 10° SE 21:19:27 18° E 21:22:13 10° NE
Cosmos 1908 3.8 21:15:50 10° N 21:19:33 42° E 21:23:17 10° SSE
Cosmos 1151 Rocket 3.5 21:19:23 10° N 21:23:30 43° E 21:27:37 10° SSE
Cosmos 2266 Rocket 4.2 21:18:27 10° SSE 21:24:36 57° E 21:30:39 10° NNE
Cosmos 2292 4.2 21:22:07 10° N 21:25:09 89° WSW 21:28:31 10° S
Cosmos 1674 2.9 21:22:57 10° S 21:26:40 53° E 21:30:26 10° NNE
Cosmos 371 Rocket 4.2 21:22:55 10° NNW 21:27:32 47° WSW 21:32:07 10° S
Cosmos 405 3.4 21:24:31 10° N 21:28:01 46° ENE 21:31:31 10° SSE
ALOS 3.6 21:24:20 10° SSW 21:28:43 40° W 21:33:06 10° NNW
Cosmos 1553 Rocket 4.2 21:23:19 10° N 21:29:44 78° W 21:36:00 10° S
H-2A R/B 4.3 21:30:00 10° ENE 21:31:25 11° ENE 21:32:50 10° NE
Cosmos 1680 Rocket 3.9 21:29:13 10° N 21:34:20 51° ENE 21:39:11 11° SE
H-2A R/B 4.3 21:33:03 10° S 21:36:12 19° SE 21:43:53 10° E
Cosmos 923 Rocket 4.0 21:33:43 10° NNW 21:38:56 75° ENE 21:44:04 10° SSE
Cosmos 1833 4.3 21:34:10 10° SSW 21:39:53 84° WNW 21:45:36 10° NNE
USA 229 DEB 4.2 21:33:28 10° SW 21:40:20 66° NW 21:47:19 10° NNE
USA 229 4.2 21:33:33 10° SW 21:40:26 67° NW 21:47:25 10° NNE
Cosmos 1300 4.2 21:37:31 10° NNE 21:40:33 22° ENE 21:42:49 14° ESE
YAOGAN 6 3.9 21:38:15 13° ESE 21:40:45 25° ENE 21:43:44 10° NNE
Tiangong 1 1.5 21:38:07 10° SW 21:41:03 39° SSE 21:43:58 10° E
Cosmos 2333 Rocket 4.2 21:41:22 10° NNE 21:44:50 16° NE 21:48:16 10° E
Cosmos 1898 Rocket 4.4 21:41:55 10° SSE 21:46:16 28° E 21:50:38 10° NE
Cosmos 1939 Rocket 2.9 21:45:58 10° S 21:49:54 76° WSW 21:53:49 10° NNW
H-2A R/B 2.4 21:45:46 10° S 21:50:17 75° WSW 21:54:49 10° NNW
ATLAS CENTAUR R/B 4.2 21:49:56 10° W 21:51:13 11° WSW 21:52:29 10° WSW
Cosmos 773 Rocket 4.3 21:46:25 10° NNW 21:51:35 65° WSW 21:56:45 10° S
Cosmos 1707 Rocket 4.4 21:49:06 10° NNE 21:53:04 34° ENE 21:55:46 18° SE
Cosmos 1437 Rocket 3.5 21:49:42 10° NNW 21:53:25 51° W 21:57:09 10° S
Cosmos 1666 Rocket 4.3 21:52:49 16° SSE 21:55:47 33° E 21:59:46 10° NNE
MetOp-A 4.3 21:51:56 14° SSE 21:56:32 61° ENE 22:01:48 10° N
COSMOS 2428 3.2 21:51:45 10° NNW 21:57:13 46° ENE 22:01:17 17° SE
SPOT 5 2.7 21:53:21 13° SSE 21:57:22 76° ENE 22:02:11 10° N
Cosmos 2297 Rocket 4.0 21:57:44 11° E 21:58:11 11° E 21:59:47 10° E
NOSS 3-1 (A) 3.6 21:54:22 10° S 21:59:54 47° ESE 22:05:57 10° NE
PSLV R/B 3.0 22:00:36 20° SSE 22:02:36 80° ENE 22:05:40 10° N
ARGOS 3.8 21:59:31 17° SE 22:03:14 40° ENE 22:08:15 10° N
Cosmos 2219 Rocket 3.4 22:00:36 10° N 22:05:21 27° ENE 22:08:52 15° ESE
Cosmos 304 Rocket 3.9 22:00:43 10° NNW 22:05:32 75° WSW 22:09:26 15° S
Nadezhda 2 Rocket 4.4 22:03:01 10° S 22:09:09 85° E 22:15:17 10° N
Cosmos 2237 4.2 22:13:07 10° NNW 22:18:52 75° ENE 22:22:30 23° SSE
Cosmos 1437 4.2 22:16:05 10° SSW 22:19:10 37° WNW 22:22:15 10° N
Cosmos 1328 4.4 22:16:13 10° SSW 22:20:06 55° W 22:24:00 10° N
Cosmos 1726 2.4 22:18:13 10° N 22:21:57 54° E 22:23:25 32° SE
ATLAS 2AS CENTAUR R/B 3.7 22:18:20 19° SSE 22:22:22 31° ESE 22:29:02 10° NE
Envisat 3.9 22:19:37 10° S 22:24:27 45° W 22:29:19 10° NNW
CZ-4C R/B 4.1 22:24:04 26° E 22:24:53 29° ENE 22:27:55 10° N
USA 32 4.4 22:21:34 10° N 22:26:39 47° E 22:29:10 27° SE
Cosmos 2219 3.7 22:22:58 10° SSW 22:28:39 63° WNW 22:34:23 10° NNE
Cosmos 292 Rocket 4.3 22:24:12 10° N 22:28:45 44° ENE 22:30:47 28° ESE
Landsat 7 4.5 22:27:03 26° ESE 22:29:08 40° ENE 22:33:34 10° N
ERBS 4.4 22:32:03 16° ENE 22:32:03 16° ENE 22:33:03 10° ENE
Delta 2 Rocket 3.0 22:28:00 10° WSW 22:31:27 48° S 22:31:53 44° SSE
Cosmos 2237 Rocket 3.3 22:31:51 10° N 22:36:58 33° ENE 22:39:42 22° ESE
Cosmos 2333 4.2 22:31:29 10° NNW 22:37:14 78° ENE 22:40:15 30° SSE
ATLAS 3B R/B 4.3 22:33:11 10° NNW 22:38:53 25° NE 22:44:01 11° E
Cosmos 1271 Rocket 2.9 22:35:21 10° N 22:39:09 55° E 22:40:05 42° SE
SL-23 DEB 3.9 22:35:06 10° WNW 22:39:39 60° SW 22:40:32 43° SSE
Cosmos 2082 4.2 22:38:00 29° SSE 22:40:08 40° ESE 22:45:26 10° NE
Meteor 2-10 4.5 22:34:54 10° N 22:40:31 54° ENE 22:43:04 31° SE
Cosmos 1703 3.2 22:41:15 43° SSE 22:42:19 62° E 22:46:11 10° NNE
SL-14 R/B 3.5 22:40:06 22° SSW 22:42:34 67° W 22:46:34 10° N
Meteor 1-4 Rocket 2.5 22:40:56 10° N 22:44:41 72° E 22:45:29 51° SSE
Cosmos 1937 Rocket 3.4 22:41:23 21° S 22:44:57 73° ESE 22:50:09 10° NNE
Terra 2.5 22:43:25 31° ESE 22:45:00 40° ENE 22:49:26 10° N
Cosmos 2242 Rocket 3.5 22:40:35 10° N 22:45:04 76° E 22:46:44 38° SSE
NOSS 3-1 (C) 3.9 22:40:44 10° SW 22:46:30 62° NW 22:52:57 10° NNE
Cosmos 2298 Rocket 4.4 22:41:21 10° SSW 22:46:38 66° WNW 22:51:56 10° NNE
Meteor 1-27 4.4 22:41:26 10° NNW 22:47:04 68° W 22:50:34 23° S
Iridium 2 3.7 22:47:14 49° SE 22:47:57 61° E 22:51:46 10° N
Cosmos 2360 Rocket 3.6 22:43:23 10° NW 22:48:15 30° WSW 22:52:21 13° SSW
NOAA 11 4.2 22:47:19 29° S 22:50:15 80° WSW 22:55:44 10° NNW
Lacrosse 4 Rocket 3.9 22:49:12 10° NNE 22:51:27 14° NE 22:53:24 11° ENE
Sich 1 3.4 22:48:46 21° SSW 22:51:39 62° W 22:56:02 10° N
Cosmos 1862 Rocket 4.2 22:47:47 10° N 22:51:51 38° ENE 22:52:33 35° E
CARTOSAT-1 4.0 22:51:07 39° ESE 22:52:09 48° ENE 22:56:19 10° N
USA 245 3.7 22:53:37 30° W 22:53:37 30° W 22:55:43 10° NW
FALCON 9 R/B 4.0 22:24:59 10° W 22:54:39 72° S 23:00:30 19° ESE
Cosmos 1633 Rocket 3.5 22:52:39 22° SSW 22:55:21 60° W 22:59:41 10° N
Cosmos 990 Rocket 3.9 22:53:44 34° S 22:55:51 64° ESE 23:00:57 10° NNE
DELTA 2 R/B (1) 4.2 22:51:48 10° W 22:56:53 37° SSW 22:58:07 33° S
DELTA 2 DEB (DPAF) 4.1 22:58:33 44° SSE 22:59:57 88° WSW 23:04:29 10° NNW
Cosmos 1626 2.4 23:01:03 50° E 23:01:03 50° E 23:04:36 10° NNE
OAO 2 Rocket 3.5 22:57:06 10° WSW 23:02:15 51° S 23:03:20 43° SE
COSMOS 2455 4.1 23:02:08 10° N 23:07:27 31° NE 23:10:13 22° E
SL-08 RB Rocket 4.2 23:06:50 34° SSW 23:08:25 53° W 23:12:50 10° NNW
H-2A R/B 2.1 23:08:02 43° SSE 23:09:54 84° ENE 23:15:22 10° NNW
Cosmos 2227 Rocket 2.1 23:11:30 31° SSW 23:14:19 82° ESE 23:20:01 10° NNE
Tiangong 1 2.0 23:14:35 10° W 23:17:13 46° NW 23:17:13 46° NW
Cosmos 1241 Rocket 4.5 23:22:15 15° SW 23:27:32 78° WNW 23:33:50 10° NNE
IGS 5A 3.4 23:29:10 68° SW 23:29:29 72° WSW 23:33:40 10° NNW
Cosmos 2333 Rocket 2.2 23:24:01 10° NNW 23:29:48 81° WSW 23:31:18 52° S
Cosmos 192 4.2 23:25:14 10° NNW 23:30:10 73° ENE 23:30:50 62° SE
SL-16 R/B 3.0 23:25:09 10° N 23:30:28 39° ENE 23:32:01 33° E
SeaSat 1 3.9 23:29:32 23° E 23:31:01 27° NE 23:35:06 10° N
Cosmos 1125 Rocket 3.5 23:33:30 57° SE 23:33:58 60° ESE 23:39:12 10° NNE
Cosmos 1455 2.7 23:35:14 10° NNW 23:38:49 52° W 23:38:49 52° W
Nadezhda 1 Rocket 4.3 23:34:02 10° NNW 23:40:00 59° W 23:42:17 37° SSW
SAR-Lupe-2 4.3 23:40:40 47° WNW 23:40:40 47° WNW 23:43:44 10° NNW
COSMOS 2428 4.4 23:36:45 10° NW 23:41:06 23° W 23:43:19 18° SW
Cosmos 2297 Rocket 2.1 23:39:29 44° SSW 23:41:22 86° WNW 23:47:04 10° NNE
Okean 1-7 4.1 23:42:00 10° N 23:45:28 34° ENE 23:45:28 34° ENE
Cosmos 2219 Rocket 2.9 23:44:12 10° NW 23:49:24 40° WSW 23:50:35 36° SW
Cosmos 1703 Rocket 3.6 23:48:32 10° N 23:52:36 68° NE 23:52:36 68° NE
